Date,TemperatureHighF,TemperatureAvgF,TemperatureLowF,DewpointHighF,DewpointAvgF,DewpointLowF,HumidityHigh,HumidityAvg,HumidityLow,PressureMaxIn,PressureMinIn,WindSpeedMaxMPH,WindSpeedAvgMPH,GustSpeedMaxMPH,PrecipitationSumIn
2014-1-1,68.5,57.3,47.2,33.7,27.4,22.8,42,32,23,30.01,29.91,8,2,9,0.00
2014-1-2,72.8,60.7,49.9,30.7,25.5,21.8,44,27,15,30.02,29.89,9,3,9,0.00
2014-1-3,71.7,62.1,55.1,31.1,26.1,22.3,32,26,18,29.90,29.74,10,3,11,0.00
2014-1-4,64.5,57.3,51.0,30.7,28.3,23.9,45,34,22,29.90,29.78,6,3,8,0.00
2014-1-5,61.0,53.1,46.9,30.4,19.2,-8.6,46,28,8,30.05,29.89,18,7,23,0.00
2014-1-6,64.3,52.7,43.8,18.9,4.7,-9.4,20,14,8,30.14,30.00,19,10,25,0.00
2014-1-7,67.7,56.3,46.1,18.9,10.8,5.9,22,17,10,30.03,29.89,9,3,11,0.00
2014-1-8,64.0,56.4,49.0,22.0,15.2,5.9,28,20,13,29.96,29.88,7,3,11,0.00
2014-1-9,62.8,53.2,47.1,22.7,16.6,9.1,29,24,16,29.94,29.82,7,3,9,0.00
2014-1-10,62.7,54.0,46.2,24.8,21.4,17.8,34,28,22,30.02,29.90,8,4,14,0.00
2014-1-11,68.7,57.5,48.7,31.4,26.6,21.9,37,31,21,30.08,29.90,8,2,8,0.00
2014-1-12,65.7,58.3,51.5,31.9,28.2,25.1,42,32,24,30.04,29.84,9,4,12,0.00
2014-1-13,66.7,56.1,49.6,29.0,14.9,6.8,40,20,11,30.19,30.04,18,8,23,0.00
2014-1-14,67.2,59.1,48.1,17.3,13.7,7.8,27,17,12,30.18,30.07,19,9,24,0.00
2014-1-15,70.0,60.3,49.0,25.5,15.9,6.8,25,18,12,30.16,30.00,19,4,26,0.00
2014-1-16,70.4,60.7,51.1,25.5,18.3,10.5,30,20,11,30.02,29.89,15,6,21,0.00
2014-1-17,71.9,62.6,51.8,24.0,13.7,7.6,22,15,11,30.03,29.90,17,8,27,0.00
2014-1-18,73.7,66.1,58.0,24.1,16.8,12.9,21,15,11,29.96,29.87,10,3,14,0.00
2014-1-19,74.0,64.0,56.1,23.0,15.4,10.5,20,15,9,30.02,29.91,8,3,9,0.00
2014-1-20,73.4,63.9,53.9,24.5,18.5,13.9,23,18,12,30.04,29.93,8,3,10,0.00
2014-1-21,76.1,66.1,55.2,21.1,14.6,9.7,22,14,8,30.05,29.89,14,4,17,0.00
2014-1-22,71.3,64.4,57.5,20.2,16.2,11.5,20,16,12,29.89,29.69,7,3,9,0.00
2014-1-23,69.6,61.3,52.8,25.2,19.4,10.9,29,20,11,30.01,29.73,12,4,16,0.00
2014-1-24,66.5,59.3,52.0,27.5,20.4,17.2,28,22,18,30.15,30.01,21,8,25,0.00
2014-1-25,69.3,61.5,55.1,46.6,32.9,21.1,48,35,23,30.09,29.92,11,3,14,0.00
2014-1-26,67.6,59.4,52.2,36.8,27.4,12.5,48,31,17,29.95,29.80,8,3,13,0.00
2014-1-27,67.6,59.7,54.5,32.6,24.1,12.8,36,26,17,29.89,29.77,9,4,12,0.00
2014-1-28,69.0,58.4,50.3,32.7,26.3,13.8,48,30,13,29.96,29.84,9,4,12,0.00
2014-1-29,71.1,60.9,49.4,23.8,18.5,9.8,32,20,14,29.95,29.81,11,4,13,0.00
2014-1-30,74.9,65.1,56.1,28.8,20.7,14.5,25,18,12,29.82,29.64,12,4,16,0.00
2014-1-31,65.6,60.7,53.7,39.1,30.7,22.6,53,34,21,29.69,29.59,19,7,22,0.00
2014-2-1,56.9,51.4,47.6,44.2,34.9,16.9,84,55,29,29.86,29.66,11,4,16,0.04
2014-2-2,56.4,49.0,39.2,24.5,20.9,15.5,45,33,26,29.99,29.84,7,3,11,0.00
2014-2-3,54.9,47.4,40.4,33.9,22.8,11.3,77,40,18,29.84,29.67,11,4,14,0.00
2014-2-4,54.4,46.2,38.8,33.9,29.4,24.9,80,54,35,30.00,29.83,9,4,13,0.00
2014-2-5,57.1,49.9,42.5,31.5,28.3,25.1,56,44,31,29.97,29.82,8,4,10,0.00
2014-2-6,54.4,48.8,41.9,32.4,29.5,28.4,60,48,38,29.94,29.83,8,2,9,0.00
2014-2-7,61.1,52.9,45.2,36.8,33.9,30.5,68,50,33,30.03,29.87,10,3,13,0.00
2014-2-8,67.0,57.0,47.9,35.0,32.1,29.2,57,40,25,30.10,30.00,7,3,10,0.00
2014-2-9,72.4,62.3,52.9,38.0,33.3,29.8,43,34,26,30.04,29.86,9,3,12,0.00
2014-2-10,71.8,63.6,55.7,35.7,32.3,28.7,40,31,21,29.88,29.71,12,4,15,0.00
2014-2-11,70.3,61.7,53.4,35.6,30.3,24.9,50,32,19,29.92,29.76,15,6,20,0.00
2014-2-12,72.9,62.5,52.9,29.1,25.0,16.1,39,25,14,29.99,29.86,14,6,19,0.00
2014-2-13,78.8,66.5,54.2,28.5,24.0,18.4,29,20,15,29.96,29.81,8,4,11,0.00
2014-2-14,82.5,69.1,58.4,29.8,26.0,23.6,27,20,14,29.91,29.80,9,4,10,0.00
2014-2-15,83.7,76.1,70.1,24.9,22.0,15.8,17,14,8,29.81,29.77,7,4,10,0.00
2014-2-16,81.3,71.6,63.7,27.2,21.7,11.9,21,16,8,29.85,29.75,8,4,13,0.00
2014-2-17,81.5,71.5,60.4,25.1,20.4,13.9,22,15,8,29.88,29.74,9,5,12,0.00
2014-2-18,80.3,70.2,59.8,30.1,21.9,9.9,24,17,7,29.82,29.69,10,3,12,0.00
2014-2-19,73.8,65.5,58.9,30.2,24.8,15.5,31,22,12,29.74,29.61,10,3,15,0.00
2014-2-20,72.4,62.4,54.2,28.1,14.9,3.6,35,17,8,29.92,29.72,9,5,15,0.00
2014-2-21,74.5,62.6,50.4,12.3,8.1,5.2,17,12,8,29.90,29.74,7,3,9,0.00
2014-2-22,73.3,64.4,55.2,18.3,10.7,7.2,17,12,8,29.80,29.70,8,3,11,0.00
2014-2-23,67.6,62.4,57.6,20.2,14.8,11.2,19,16,13,29.85,29.77,7,3,7,0.00
2014-2-24,76.3,66.8,58.2,29.5,24.5,18.1,27,20,15,29.85,29.73,8,3,11,0.00
2014-2-25,71.1,64.7,59.1,35.2,29.8,26.0,36,27,22,29.83,29.75,8,3,12,0.00
2014-2-26,74.2,65.1,56.6,40.5,36.7,31.4,50,36,22,29.87,29.72,9,3,13,0.00
2014-2-27,73.2,64.0,54.7,39.6,37.4,34.1,51,38,25,29.83,29.65,12,4,19,0.00
2014-2-28,75.8,66.4,55.8,40.9,37.8,33.1,53,36,23,29.74,29.63,13,6,20,0.00
2014-3-1,66.0,60.3,54.2,51.1,45.3,36.9,89,60,36,29.75,29.64,14,8,19,0.09
2014-3-2,61.8,56.8,51.4,43.2,41.2,36.0,72,56,47,30.02,29.92,9,5,12,0.19
2014-3-3,68.8,58.6,49.6,47.1,42.9,35.9,74,57,42,29.99,29.78,12,4,15,0.00
2014-3-4,69.5,60.2,53.6,46.2,42.5,40.1,66,53,37,29.84,29.70,8,3,12,0.00
2014-3-5,74.2,64.8,51.7,42.8,36.8,26.8,65,38,21,29.91,29.81,10,6,17,0.00
2014-3-6,77.9,68.1,58.3,35.6,30.1,20.5,35,25,12,29.87,29.69,12,4,14,0.00
2014-3-7,74.3,65.2,57.5,41.9,35.3,27.6,45,34,18,29.74,29.63,14,5,17,0.00
2014-3-8,70.9,62.8,54.5,39.3,30.1,19.0,51,31,16,29.94,29.73,15,8,24,0.00
2014-3-9,71.9,61.9,53.9,27.8,21.7,11.2,36,23,11,30.06,29.89,13,7,18,0.00
2014-3-10,74.7,62.5,52.6,32.2,24.6,20.2,31,24,19,29.96,29.80,13,4,13,0.00
2014-3-13,76.2,69.7,61.2,30.7,28.5,26.2,27,22,18,29.77,29.61,10,5,21,0.00
2014-3-14,68.3,61.6,54.7,36.0,29.8,26.1,41,31,21,29.89,29.70,14,5,19,0.00
2014-3-15,71.5,63.5,54.0,32.5,22.7,-6.2,41,24,5,30.00,29.85,16,5,25,0.00
2014-3-16,71.9,61.8,53.0,14.4,5.9,-4.0,17,11,5,30.12,29.95,14,8,20,0.00
2014-3-17,78.1,66.9,54.9,17.1,11.9,7.1,20,12,7,29.97,29.50,15,5,22,0.00
2014-3-18,68.4,62.6,58.5,16.9,9.5,4.2,17,12,8,29.74,29.51,8,4,10,0.00
2014-3-19,75.3,65.4,53.7,16.6,9.1,3.7,16,11,7,29.89,29.74,10,4,14,0.00
2014-3-20,79.4,68.3,55.1,19.7,15.3,11.3,19,13,8,29.90,29.68,9,3,12,0.00
2014-3-21,76.8,67.6,57.2,24.5,19.3,14.9,27,16,10,29.76,29.65,11,4,18,0.00
2014-3-22,76.5,67.1,57.2,23.6,18.2,10.7,22,16,11,29.83,29.71,10,4,14,0.00
2014-3-23,78.5,67.5,56.1,27.4,23.1,17.1,28,19,11,29.90,29.76,10,4,14,0.00
2014-3-24,79.5,69.4,58.5,27.5,24.2,21.5,27,19,13,29.87,29.74,9,4,14,0.00
2014-3-25,80.0,68.7,56.8,32.4,26.5,21.9,32,21,13,29.76,29.56,17,4,19,0.00
2014-3-26,75.3,65.3,57.6,43.1,30.9,18.8,56,29,16,29.68,29.56,19,8,29,0.00
2014-3-27,66.6,58.5,48.5,44.4,35.2,27.4,72,44,23,29.85,29.68,14,7,21,0.00
2014-3-28,71.5,60.9,50.4,32.8,29.1,22.4,47,31,19,29.98,29.85,10,4,19,0.00
2014-3-29,81.7,68.3,54.1,28.1,22.8,10.2,32,19,7,29.97,29.75,9,4,13,0.00
2014-3-30,76.5,67.8,59.3,29.1,22.7,19.9,24,18,14,29.76,29.64,13,5,17,0.00
2014-3-31,77.2,66.8,54.9,25.4,18.6,5.6,28,17,7,29.84,29.69,13,6,18,0.00
2014-4-1,75.5,66.5,58.2,26.4,13.5,-0.8,27,14,5,29.75,29.61,16,8,25,0.00
2014-4-2,62.7,56.3,48.3,35.8,27.4,16.7,47,34,18,29.80,29.64,15,8,24,0.00
2014-4-3,64.9,55.1,43.6,26.7,22.0,17.1,46,29,16,29.93,29.80,10,5,19,0.00
2014-4-4,73.3,62.1,48.9,22.5,17.8,8.6,31,19,10,29.87,29.64,11,5,14,0.00
2014-4-5,68.2,61.0,52.9,20.5,17.1,13.0,22,18,14,29.77,29.63,10,5,15,0.00
2014-4-6,70.2,62.4,52.0,25.1,18.9,14.8,28,19,12,29.85,29.76,12,5,25,0.00
2014-4-7,80.2,68.2,58.3,22.8,19.6,12.2,22,16,8,29.95,29.84,19,8,25,0.00
2014-4-8,88.4,76.2,63.5,22.8,13.6,-3.1,20,10,3,29.97,29.82,14,6,16,0.00
2014-4-9,87.9,77.8,66.4,15.2,9.0,-3.2,12,7,3,29.86,29.73,10,4,15,0.00
2014-4-10,91.0,80.2,68.8,11.0,-1.9,-25.6,9,5,1,29.82,29.65,11,4,17,0.00
2014-4-11,89.8,79.5,71.6,21.8,11.3,-5.7,11,8,4,29.75,29.54,14,5,18,0.00
2014-4-12,79.0,72.8,65.0,25.4,18.8,11.3,19,13,9,29.62,29.47,15,8,20,0.00
2014-4-13,79.9,69.2,57.4,35.9,22.8,17.0,29,18,11,29.70,29.56,13,6,21,0.00
2014-4-14,77.2,68.0,58.0,30.8,11.0,-11.2,30,13,3,29.86,29.70,21,9,31,0.00
2014-4-15,85.8,73.3,61.1,12.9,6.5,-2.1,12,8,4,29.81,29.55,16,6,20,0.00
2014-4-16,82.6,74.2,63.2,17.9,8.1,-1.6,14,8,4,29.65,29.50,13,5,18,0.00
2014-4-17,86.9,76.1,64.9,27.4,21.9,15.0,20,14,7,29.74,29.59,11,4,12,0.00
2014-4-18,75.5,69.5,63.9,43.3,36.8,24.9,47,31,17,29.76,29.63,13,5,17,0.00
2014-4-19,77.8,67.9,59.9,49.1,41.7,35.7,65,40,23,29.83,29.68,15,4,24,0.01
2014-4-20,82.2,71.6,59.0,43.9,40.1,36.1,54,34,22,29.88,29.76,9,4,13,0.00
2014-4-21,89.6,78.9,67.3,39.4,35.6,29.3,32,22,13,29.85,29.65,9,4,13,0.00
2014-4-22,89.9,77.8,68.1,38.4,32.8,21.7,30,20,9,29.69,29.49,16,7,23,0.00
2014-4-23,79.8,71.2,63.9,35.2,23.2,10.1,29,18,8,29.70,29.55,14,6,23,0.00
2014-4-24,83.1,72.9,60.9,24.7,13.9,9.7,19,11,7,29.78,29.64,10,5,15,0.00
2014-4-25,86.4,74.0,64.1,29.1,21.8,11.7,26,15,7,29.70,29.50,14,7,21,0.00
2014-4-26,66.1,60.9,51.2,49.8,31.6,17.4,85,36,19,29.72,29.45,19,8,30,0.05
2014-4-27,70.8,60.4,48.9,35.7,29.2,22.6,53,33,17,29.80,29.68,10,4,19,0.00
2014-4-28,76.4,67.1,54.9,32.2,28.3,24.7,39,24,16,29.80,29.69,12,4,16,0.00
2014-4-29,76.7,67.0,59.1,27.9,3.5,-20.5,25,10,2,29.85,29.73,25,13,33,0.00
2014-4-30,78.6,67.4,55.3,15.4,8.6,3.6,16,10,6,29.84,29.65,19,8,22,0.00
2014-5-1,80.1,71.2,61.7,26.2,21.6,8.0,22,16,8,29.80,29.68,21,9,24,0.00
2014-5-2,86.3,75.9,63.7,18.6,12.4,2.0,14,9,6,29.85,29.69,15,6,20,0.00
2014-5-3,92.2,80.8,67.2,23.5,14.2,5.2,15,9,4,29.78,29.62,9,4,14,0.00
2014-5-4,92.2,86.0,75.5,16.7,11.1,4.5,10,6,4,29.76,29.61,13,6,22,0.00
2014-5-5,87.5,78.7,69.7,31.0,20.3,11.9,19,12,6,29.73,29.57,14,7,23,0.00
2014-5-6,84.0,71.6,60.0,35.2,17.8,-14.6,35,16,2,29.60,29.42,17,9,33,0.00
2014-5-7,68.0,63.2,59.4,31.8,29.9,27.2,34,29,22,29.74,29.67,9,6,11,0.00
2014-5-8,74.0,65.6,53.7,33.1,29.5,23.9,40,27,16,29.82,29.73,10,4,18,0.00
2014-5-9,80.5,71.6,59.7,30.1,26.4,18.8,30,19,10,29.82,29.68,9,4,14,0.00
2014-5-10,86.8,75.0,64.3,33.8,29.8,27.1,25,19,12,29.69,29.47,15,6,19,0.00
2014-5-11,73.0,67.5,59.1,31.6,15.4,7.5,24,14,10,29.73,29.53,15,8,26,0.00
2014-5-12,78.7,67.4,54.0,26.3,18.0,8.3,24,16,9,29.84,29.72,14,6,17,0.00
2014-5-13,82.0,71.6,61.6,18.3,10.4,0.4,16,10,5,29.90,29.79,16,12,23,0.00
2014-5-14,84.5,74.6,64.6,23.1,19.0,4.4,19,13,8,29.92,29.80,18,6,22,0.00
2014-5-15,91.3,80.6,68.2,21.1,14.9,5.2,15,9,5,29.89,29.72,13,6,15,0.00
2014-5-16,94.4,84.8,71.2,22.1,14.6,0.2,14,8,3,29.79,29.60,10,4,18,0.00
2014-5-17,95.6,85.1,73.5,19.4,8.8,-7.7,11,6,2,29.67,29.52,13,5,20,0.00
2014-5-18,94.5,84.3,73.2,13.1,2.0,-23.4,8,5,1,29.61,29.49,14,6,19,0.00
2014-5-19,93.7,82.8,72.5,30.8,10.3,-1.8,18,7,3,29.62,29.53,14,7,24,0.00
2014-5-20,91.3,80.3,69.0,27.9,17.5,9.3,17,10,5,29.67,29.57,17,8,27,0.00
2014-5-21,87.5,77.1,66.4,22.2,15.4,-4.5,17,11,3,29.67,29.58,19,8,30,0.00
2014-5-22,86.3,74.8,62.8,28.5,19.4,11.1,18,13,7,29.73,29.59,18,7,23,0.00
2014-5-23,81.7,71.5,62.4,38.1,20.8,3.5,35,17,5,29.72,29.60,12,6,19,0.00
2014-5-24,81.0,72.2,62.1,38.6,34.0,25.9,37,26,14,29.75,29.64,10,4,16,0.00
2014-5-25,85.3,76.8,68.8,45.0,38.4,33.6,42,26,19,29.73,29.61,13,4,18,0.00
2014-5-26,91.9,82.4,70.5,41.7,38.2,34.1,31,21,14,29.75,29.62,14,4,20,0.00
2014-5-27,97.7,87.9,74.5,40.5,36.8,32.3,26,17,12,29.74,29.55,13,5,16,0.00
2014-5-28,98.2,87.3,77.8,33.6,31.0,26.8,19,14,10,29.65,29.48,11,4,19,0.00
2014-5-30,94.7,90.0,84.5,39.1,36.8,33.7,18,15,14,29.57,29.50,9,6,13,0.00
2014-5-31,99.8,89.3,76.3,40.0,35.5,29.3,24,16,9,29.60,29.47,12,5,20,0.00
2014-6-1,98.3,88.6,76.0,32.3,27.8,22.2,17,12,7,29.60,29.49,9,4,18,0.00
2014-6-2,102.5,91.2,79.3,29.9,22.6,12.3,14,9,4,29.58,29.47,13,5,19,0.00
2014-6-3,102.0,91.7,79.5,33.8,28.6,15.9,17,11,7,29.56,29.43,11,5,17,0.00
2014-6-4,101.6,91.7,79.4,21.7,7.8,-10.7,7,4,2,29.55,29.42,11,5,16,0.00
2014-6-5,100.9,90.7,78.5,14.3,3.6,-13.9,8,4,2,29.52,29.37,11,6,18,0.00
2014-6-6,98.3,88.0,75.4,14.1,-0.5,-21.8,7,4,1,29.50,29.40,12,4,16,0.00
2014-6-7,98.4,88.1,75.4,33.8,20.1,12.3,16,9,5,29.51,29.39,11,5,17,0.00
2014-6-8,96.8,87.3,74.9,44.6,34.0,27.5,21,15,9,29.55,29.43,10,4,14,0.00
2014-6-9,94.8,90.2,84.0,25.3,21.6,16.6,11,8,6,29.49,29.45,9,5,9,0.00
2014-6-10,101.2,89.6,77.6,51.9,38.7,15.4,36,19,5,29.56,29.44,13,6,19,0.00
2014-6-11,96.8,88.3,78.2,53.0,44.4,24.1,37,23,10,29.60,29.49,15,6,19,0.00
2014-6-12,99.7,89.6,78.6,52.2,41.4,32.4,31,20,10,29.66,29.52,14,6,19,0.00
2014-6-13,99.1,90.0,77.6,53.5,49.0,42.7,41,26,17,29.62,29.44,15,7,21,0.00
2014-6-14,96.3,88.4,79.8,45.5,41.0,33.4,27,20,12,29.54,29.42,16,8,28,0.00
2014-6-15,95.4,86.2,76.9,43.3,31.0,12.8,27,15,5,29.57,29.48,14,7,29,0.00
2014-6-16,96.7,88.2,79.6,46.6,34.2,17.2,26,15,9,29.61,29.50,16,8,24,0.00
2014-6-17,94.8,86.0,77.4,50.9,45.9,42.1,31,25,21,29.63,29.50,18,8,25,0.00
2014-6-18,92.6,84.0,75.2,48.0,44.0,39.2,33,25,18,29.62,29.53,15,8,21,0.00
2014-6-19,95.3,85.6,72.1,45.9,40.0,36.4,28,20,16,29.70,29.57,9,4,15,0.00
2014-6-20,98.9,89.6,77.1,38.8,36.3,33.0,21,16,12,29.66,29.50,11,5,16,0.00
2014-6-21,98.9,89.1,77.9,42.6,40.8,37.5,27,19,13,29.64,29.49,11,5,18,0.00
2014-6-22,99.0,89.2,78.2,44.0,35.8,27.2,24,15,12,29.65,29.49,11,5,18,0.00
2014-6-23,99.3,89.2,76.9,35.7,27.6,11.9,21,12,5,29.65,29.51,11,5,20,0.00
2014-6-24,98.0,88.8,78.6,41.2,31.7,19.0,19,13,9,29.70,29.53,11,6,21,0.00
2014-6-25,99.4,89.2,78.2,48.5,41.6,34.7,31,20,13,29.66,29.49,12,6,21,0.00
2014-6-26,98.7,89.4,80.1,54.0,41.7,26.3,32,21,8,29.61,29.45,14,7,23,0.00
2014-6-27,96.1,87.6,77.6,43.3,35.6,30.3,22,16,11,29.54,29.42,15,7,21,0.00
2014-6-28,98.4,88.9,77.5,50.9,39.6,33.3,29,19,11,29.58,29.50,10,5,17,0.00
2014-6-29,100.8,90.8,80.0,59.6,49.3,36.5,44,26,11,29.65,29.51,10,4,14,0.00
2014-6-30,100.4,91.1,79.7,58.3,45.8,30.0,46,24,9,29.64,29.47,12,4,15,0.00
2014-7-1,100.9,91.5,81.4,41.8,38.4,34.7,22,16,11,29.61,29.47,9,4,15,0.00
2014-7-2,99.5,90.4,81.9,55.6,47.2,36.7,36,24,16,29.66,29.50,12,5,19,0.00
2014-7-3,99.7,84.9,68.0,68.3,56.2,50.9,92,42,21,29.79,29.52,23,5,29,0.35
2014-7-4,92.3,81.0,73.1,65.7,62.0,56.3,73,54,32,29.81,29.70,11,4,15,0.00
2014-7-5,92.8,81.5,73.7,66.4,62.8,58.0,73,54,39,29.84,29.66,16,4,18,0.01
2014-7-6,96.1,85.7,73.0,64.9,59.9,53.4,74,44,26,29.78,29.58,16,5,22,0.00
2014-7-7,92.3,82.5,77.4,65.4,62.7,58.4,64,52,37,29.66,29.57,17,5,21,0.00
2014-7-8,96.4,84.2,74.8,65.1,62.6,59.2,67,50,31,29.74,29.59,13,5,25,0.00
2014-7-10,86.8,83.7,81.5,61.4,60.6,59.5,50,46,40,29.67,29.59,8,3,8,0.00
2014-7-11,96.2,85.8,77.1,63.0,61.2,58.3,59,45,30,29.69,29.58,11,4,18,0.00
2014-7-12,93.6,91.7,88.7,62.0,58.6,57.2,41,33,30,29.64,29.63,8,6,10,0.00
2014-7-13,96.6,79.8,69.5,68.9,63.8,55.9,89,61,26,29.77,29.59,20,6,25,0.11
2014-7-14,91.5,80.0,70.4,70.3,65.8,62.9,86,64,40,29.79,29.69,17,4,27,0.00
2014-7-15,85.9,77.9,67.5,67.6,64.4,61.2,93,64,46,29.84,29.69,10,3,11,0.68
2014-7-16,94.3,84.6,73.9,67.0,59.9,51.2,73,46,25,29.75,29.58,10,4,16,0.00
2014-7-17,94.2,86.4,79.7,58.6,46.9,36.3,45,27,17,29.70,29.57,9,5,16,0.00
2014-7-18,95.2,85.8,76.5,51.1,45.3,38.4,33,25,20,29.73,29.60,11,4,14,0.00
2014-7-19,96.6,87.5,79.1,58.3,52.3,41.4,47,31,21,29.72,29.59,12,4,15,0.00
2014-7-20,98.0,88.9,79.5,54.5,43.3,38.7,40,21,14,29.74,29.61,9,4,14,0.00
2014-7-21,97.5,89.1,78.9,51.3,44.2,41.5,34,22,15,29.77,29.64,9,4,16,0.00
2014-7-22,102.8,93.1,82.3,54.0,48.4,43.5,34,22,16,29.74,29.60,8,4,12,0.00
2014-7-23,105.4,92.6,84.5,65.7,57.8,45.9,52,32,19,29.70,29.55,11,4,14,0.01
2014-7-24,104.6,93.2,81.1,62.5,53.7,42.9,51,30,14,29.65,29.49,14,4,21,0.00
2014-7-25,100.1,84.1,70.9,67.5,63.1,54.6,82,51,28,29.70,29.56,20,4,27,0.18
2014-7-26,95.0,85.4,72.7,65.0,61.1,57.7,71,46,31,29.77,29.60,10,4,14,0.00
2014-7-27,95.1,84.4,71.7,65.8,59.1,53.8,74,45,28,29.82,29.65,18,7,21,0.06
2014-7-28,93.2,84.1,73.0,63.5,60.7,57.6,72,47,32,29.85,29.71,9,3,11,0.00
2014-7-29,98.8,89.7,79.1,63.2,58.0,51.9,53,36,22,29.77,29.60,8,4,15,0.00
2014-7-30,100.8,91.0,82.0,58.8,55.2,51.6,40,31,21,29.68,29.56,11,4,15,0.00
2014-7-31,96.3,88.2,81.9,62.3,56.3,52.9,46,35,26,29.73,29.58,13,4,15,0.00
2014-8-1,91.5,79.2,69.6,67.7,63.7,58.2,87,61,35,29.77,29.61,22,7,23,0.21
2014-8-2,87.8,75.2,70.2,70.3,66.4,62.2,92,75,45,29.78,29.68,7,2,9,0.10
2014-8-3,93.2,81.7,69.6,69.6,62.2,55.3,93,56,29,29.79,29.64,9,3,13,0.00
2014-8-4,94.8,85.8,75.4,63.5,56.7,42.1,61,40,17,29.74,29.60,10,5,19,0.00
2014-8-8,96.0,88.7,78.2,61.7,54.0,46.7,57,33,22,29.68,29.55,13,6,18,0.00
2014-8-9,93.5,83.7,74.5,62.5,58.9,52.0,64,45,26,29.75,29.59,14,4,23,0.00
2014-8-10,95.2,83.9,75.9,61.3,59.0,57.1,59,44,29,29.75,29.63,13,5,18,0.00
2014-8-12,73.8,72.4,71.2,70.3,68.7,66.5,93,88,80,29.74,29.67,6,2,7,1.11
2014-8-13,89.7,79.6,71.0,68.8,66.4,64.0,87,65,44,29.80,29.68,11,4,16,0.00
2014-8-14,92.5,80.2,72.8,68.8,65.9,59.9,78,63,40,29.76,29.66,19,4,22,0.06
2014-8-15,93.8,82.6,73.5,70.0,64.1,55.3,78,55,33,29.78,29.65,12,3,15,0.00
2014-8-16,94.9,83.9,75.5,66.6,61.3,49.8,69,49,30,29.78,29.62,17,4,21,0.00
2014-8-17,97.1,85.3,73.7,65.0,59.9,56.3,66,44,28,29.75,29.55,18,5,23,0.07
2014-8-18,90.3,80.2,69.9,66.8,62.2,58.1,89,56,34,29.71,29.57,10,5,16,0.17
2014-8-19,83.5,75.7,71.5,69.7,65.7,62.0,85,72,54,29.68,29.58,17,6,23,0.04
2014-8-20,89.9,79.4,69.5,64.9,60.6,52.1,84,55,31,29.75,29.61,8,3,14,0.00
2014-8-21,84.3,76.3,68.8,67.5,62.0,57.6,80,62,49,29.78,29.68,12,3,13,0.03
2014-8-22,87.4,78.4,66.7,63.6,59.6,56.0,85,55,36,29.79,29.67,8,4,11,0.00
2014-8-23,90.5,81.6,71.6,63.6,57.1,52.4,65,45,29,29.74,29.59,9,4,11,0.00
2014-8-24,93.6,84.8,73.4,61.0,56.0,49.7,59,39,25,29.66,29.55,10,5,15,0.00
2014-8-25,91.1,78.6,71.2,67.3,63.7,59.6,81,61,41,29.75,29.60,15,4,16,0.13
2014-8-26,89.7,78.4,70.8,68.1,64.4,60.9,87,64,40,29.80,29.68,13,4,19,0.35
2014-8-27,90.9,82.3,73.2,68.2,63.3,57.8,75,54,37,29.83,29.70,6,3,10,0.00
2014-8-28,94.7,86.1,77.2,62.7,54.8,46.2,54,36,22,29.75,29.58,8,4,11,0.00
2014-8-29,97.2,88.2,78.5,52.9,45.1,38.8,35,23,15,29.63,29.51,9,4,14,0.00
2014-8-30,100.1,90.7,79.5,48.4,42.9,39.6,28,19,14,29.62,29.49,10,4,14,0.00
2014-8-31,97.9,89.0,75.8,53.5,45.9,38.1,36,23,13,29.64,29.52,10,5,17,0.00
2014-9-1,99.4,88.8,77.2,49.8,46.1,42.8,33,23,17,29.64,29.51,6,3,13,0.00
2014-9-5,91.2,84.6,74.1,64.3,60.8,57.2,64,45,34,29.72,29.63,8,4,13,0.00
2014-9-6,90.2,79.9,73.9,68.0,63.5,57.4,76,58,42,29.73,29.62,15,4,17,0.06
2014-9-7,91.4,81.4,72.7,67.6,64.1,61.0,79,57,38,29.71,29.56,9,3,13,0.00
2014-9-8,78.8,73.8,66.7,71.0,67.7,64.6,95,82,69,29.73,29.62,11,2,11,1.91
2014-9-9,84.4,77.1,70.1,68.4,65.5,61.2,88,68,51,29.77,29.64,8,3,12,0.00
2014-9-10,88.8,79.1,69.2,66.4,60.3,49.8,85,56,28,29.74,29.61,7,3,10,0.00
2014-9-11,93.0,82.5,71.0,64.1,57.6,47.0,70,45,21,29.67,29.55,9,3,10,0.00
2014-9-12,96.7,85.5,76.0,62.0,57.4,53.7,58,40,25,29.63,29.49,12,4,15,0.00
2014-9-13,90.4,82.2,74.5,61.4,58.5,56.1,60,46,33,29.64,29.54,10,5,16,0.00
2014-9-14,92.4,82.9,73.1,59.5,57.6,55.9,57,43,32,29.65,29.54,6,4,10,0.00
2014-9-17,82.2,75.8,70.9,68.2,64.9,63.7,85,69,57,29.60,29.51,9,4,10,0.15
2014-9-18,81.9,73.8,67.9,68.2,66.2,63.8,93,77,62,29.61,29.54,8,2,11,0.01
2014-9-19,87.8,77.6,71.2,71.8,67.9,64.2,88,73,52,29.67,29.57,10,2,12,0.10
2014-9-20,87.2,79.2,72.2,69.4,67.0,64.8,83,67,50,29.70,29.60,9,3,11,0.00
2014-9-21,91.3,81.7,73.3,64.5,59.0,50.9,65,47,36,29.76,29.63,9,3,12,0.00
2014-9-22,91.9,82.7,74.8,64.9,61.1,54.1,65,49,34,29.77,29.64,9,4,12,0.00
2014-9-23,82.5,79.7,77.5,58.2,56.6,52.8,51,45,36,29.72,29.69,9,3,11,0.00
2014-9-27,86.6,79.5,72.5,63.6,61.2,56.7,72,55,38,29.59,29.48,15,9,21,0.00
2014-9-28,85.7,76.2,69.3,63.9,59.6,48.2,80,60,28,29.66,29.58,15,8,28,0.00
2014-10-3,93.6,84.4,71.7,39.0,30.8,24.3,22,15,9,29.85,29.73,16,6,22,0.00
2014-10-4,92.3,82.4,72.3,43.9,36.0,29.6,29,19,14,29.78,29.66,9,4,15,0.00
2014-10-5,88.7,80.0,68.3,50.6,45.8,38.6,41,30,22,29.76,29.62,9,4,12,0.00
2014-10-7,73.5,71.4,69.3,58.3,56.5,54.2,68,60,51,29.72,29.68,10,3,11,0.00
2014-10-8,70.5,66.9,64.2,64.6,60.9,53.6,95,81,59,29.71,29.59,15,4,20,0.93
2014-10-9,64.6,63.2,62.4,63.2,62.3,60.0,98,97,85,29.75,29.68,7,3,12,0.41
2014-10-10,77.2,71.1,68.2,59.7,57.3,50.0,73,62,50,29.80,29.75,9,4,10,0.00
2014-10-11,84.2,74.3,63.8,57.7,51.8,40.7,77,47,27,29.82,29.69,8,3,10,0.00
2014-10-12,81.8,73.8,64.6,54.4,51.1,45.5,59,46,29,29.72,29.61,11,4,15,0.00
2014-10-15,76.5,74.3,72.7,50.0,49.2,48.4,44,41,39,29.72,29.70,5,2,5,0.00
2014-10-16,85.5,75.7,65.9,53.4,47.5,41.1,56,38,23,29.77,29.65,8,4,12,0.00
2014-10-17,84.3,73.3,66.1,51.2,43.4,37.3,56,35,19,29.78,29.64,14,4,19,0.00
2014-10-18,87.0,76.4,67.3,49.6,45.1,41.0,44,34,21,29.68,29.54,10,4,14,0.00
2014-10-19,85.2,74.2,65.2,52.7,48.1,43.3,64,40,27,29.64,29.54,16,3,20,0.01
2014-10-24,89.5,80.1,74.4,47.9,45.8,44.9,36,30,22,29.81,29.74,11,4,11,0.00
2014-10-25,91.0,80.8,70.5,58.1,48.8,44.7,46,33,24,29.84,29.69,9,3,15,0.00
2014-10-26,82.5,75.8,69.4,57.6,54.5,52.3,56,48,41,29.72,29.58,9,3,12,0.00
2014-10-27,79.5,71.5,64.9,55.0,51.5,45.7,65,50,31,29.75,29.59,8,3,13,0.00
2014-10-28,80.6,71.0,61.5,51.8,48.8,45.4,64,47,32,29.85,29.75,10,3,11,0.00
2014-10-29,84.4,74.2,60.6,47.9,43.7,38.0,54,35,24,29.87,29.76,10,3,13,0.00
2014-10-30,88.5,77.2,66.2,46.9,37.7,28.2,38,25,12,29.83,29.70,11,3,12,0.00
2014-10-31,86.4,77.3,67.7,50.3,44.2,37.7,44,31,25,29.74,29.58,12,4,16,0.00
2014-11-1,81.1,72.0,63.9,53.7,47.1,35.6,68,43,20,29.68,29.59,14,6,22,0.00
2014-11-2,65.9,60.9,52.9,54.0,45.4,33.4,77,58,40,29.83,29.67,11,6,16,0.00
2014-11-3,64.1,57.5,50.8,35.7,31.1,26.3,49,37,25,29.93,29.81,9,5,15,0.00
2014-11-4,69.1,60.1,50.1,33.7,27.9,24.7,41,30,19,29.98,29.86,13,6,16,0.00
2014-11-5,74.6,65.5,57.5,38.2,34.3,30.4,42,32,22,29.97,29.85,15,8,18,0.00
2014-11-6,76.8,67.0,56.9,41.8,36.5,29.7,49,33,26,30.08,29.96,13,5,16,0.00
2014-11-7,78.5,66.6,55.9,43.3,38.2,30.8,53,36,25,30.01,29.82,11,4,16,0.00
2014-11-8,83.7,70.5,58.3,37.3,33.1,29.4,39,26,15,29.94,29.82,6,3,11,0.00
2014-11-9,80.9,70.0,60.2,38.8,34.5,31.1,34,28,18,29.85,29.63,8,4,8,0.00
2014-11-16,55.9,49.2,47.9,48.4,7.2,4.8,76,19,16,30.00,29.82,17,15,26,0.00
2014-11-17,64.8,54.0,43.4,16.3,12.2,4.8,27,19,14,30.07,29.94,18,9,24,0.00
2014-11-18,68.6,57.0,45.0,18.8,16.2,12.6,30,21,13,30.11,30.00,13,4,15,0.00
2014-11-19,70.3,60.3,48.5,17.5,12.4,1.7,24,16,7,30.04,29.90,7,3,8,0.00
2014-11-20,69.4,60.2,51.1,24.4,15.4,6.8,26,18,9,29.95,29.82,7,3,11,0.00
2014-11-21,68.2,58.0,50.9,33.6,22.7,13.4,49,26,13,29.85,29.71,8,3,10,0.00
2014-11-22,67.3,56.7,45.6,36.0,28.8,24.1,61,36,20,29.97,29.83,7,3,12,0.00
2014-11-23,62.7,56.7,51.0,31.2,22.3,-10.8,41,28,7,30.01,29.81,13,5,20,0.00
2014-11-24,60.6,53.5,48.8,8.8,-0.4,-10.8,17,11,7,30.22,30.00,17,8,25,0.00
2014-11-25,62.9,52.3,41.3,5.3,0.4,-4.1,18,12,7,30.31,30.17,18,6,22,0.00
2014-11-26,72.6,59.6,47.3,23.2,11.2,-2.7,22,15,11,30.21,30.05,10,4,17,0.00
2014-11-27,82.0,69.4,56.6,25.7,21.5,19.0,25,17,10,30.06,29.90,17,4,21,0.00
2014-11-28,81.0,69.2,60.7,26.1,20.8,15.8,21,16,9,29.90,29.74,8,3,10,0.00
2014-11-29,77.3,68.8,62.3,25.8,22.2,16.9,21,17,12,29.80,29.67,7,3,11,0.00
2014-11-30,73.1,64.7,57.5,30.0,24.7,20.7,35,22,16,29.94,29.76,12,5,16,0.00
2014-12-1,70.9,61.8,50.9,32.3,29.2,25.3,42,30,19,30.03,29.88,9,4,12,0.00
2014-12-2,70.1,62.3,55.7,52.9,27.7,17.5,83,30,15,29.92,29.80,8,2,9,0.00
2014-12-3,75.7,66.9,58.7,53.9,51.3,48.4,81,58,42,29.90,29.79,6,2,11,0.00
2014-12-4,65.0,57.5,53.1,56.0,52.1,48.6,97,83,57,29.95,29.77,12,3,15,0.83
2014-12-5,67.6,59.2,52.6,52.9,49.1,46.9,87,70,49,30.05,29.94,11,4,16,0.00
2014-12-6,64.4,58.7,54.7,49.5,46.3,43.2,73,64,47,30.03,29.94,12,3,12,0.00
2014-12-7,70.8,61.3,54.7,48.6,43.7,40.2,68,53,38,30.07,29.92,18,5,20,0.00
2014-12-8,72.2,63.6,56.5,45.6,41.0,37.4,63,44,30,29.96,29.87,8,2,9,0.00
2014-12-9,73.7,64.1,57.4,48.5,43.6,39.8,68,48,31,29.90,29.80,6,2,9,0.00
2014-12-10,73.1,62.2,52.7,50.2,46.0,39.0,77,57,31,29.86,29.75,8,3,11,0.00
2014-12-11,71.5,61.9,52.4,47.6,37.2,24.3,75,45,18,29.91,29.81,7,3,10,0.00
2014-12-12,73.3,65.4,58.6,51.4,38.3,26.2,75,38,24,29.94,29.79,14,5,17,0.00
2014-12-13,59.5,50.7,45.4,51.7,45.7,37.2,95,83,71,29.97,29.82,12,3,15,0.64
2014-12-14,54.9,47.4,40.8,41.3,38.4,36.4,87,72,56,30.04,29.95,7,3,10,0.00
2014-12-15,65.0,52.3,42.3,40.7,35.7,29.3,79,56,27,30.01,29.88,8,2,11,0.00
2014-12-16,62.0,54.5,48.5,42.5,37.6,33.2,65,53,39,29.93,29.81,7,2,8,0.00
2014-12-17,53.9,47.4,43.0,46.0,42.9,34.9,95,85,58,30.04,29.88,12,2,16,0.66
2014-12-18,53.6,47.9,44.8,45.9,42.1,37.2,94,81,56,30.09,29.97,7,3,12,0.08
2014-12-19,56.9,48.4,40.8,42.8,38.8,31.1,90,70,51,30.14,30.00,11,4,13,0.00
2014-12-20,60.1,50.4,41.8,40.4,36.3,31.5,76,59,37,30.05,29.93,7,3,10,0.00
2014-12-21,59.4,51.1,43.3,40.5,37.1,32.6,76,60,39,30.03,29.92,6,3,10,0.00
2014-12-22,59.8,52.5,44.7,41.6,39.4,36.8,76,62,48,29.94,29.78,7,3,10,0.00
2014-12-23,55.8,51.7,46.1,41.0,23.4,7.9,70,37,15,30.04,29.84,20,10,31,0.00
2014-12-24,61.5,50.9,40.8,25.6,16.0,11.0,40,25,14,30.05,29.73,19,5,26,0.00
2014-12-25,62.7,52.9,42.2,39.5,24.1,12.9,87,39,16,29.73,29.53,12,4,18,0.05
2014-12-26,47.7,42.2,36.5,38.2,15.3,10.8,86,34,23,30.03,29.69,10,4,12,0.00
2014-12-27,49.6,41.0,33.9,20.6,16.9,10.1,54,39,21,30.20,30.02,10,5,14,0.00
2014-12-28,54.1,47.5,37.7,26.2,21.1,17.3,48,36,25,30.19,30.04,6,3,7,0.00
2014-12-29,59.2,47.8,37.9,22.6,15.5,-5.6,49,30,8,30.09,29.94,7,2,8,0.00
2014-12-30,66.1,55.6,46.1,19.0,13.4,4.2,31,19,9,29.95,29.74,11,5,13,0.00
2014-12-31,54.8,44.8,30.4,39.0,28.6,14.9,96,61,22,29.90,29.67,18,6,25,0.36
2015-1-1,38.5,32.8,29.4,32.9,29.1,25.7,97,86,73,30.05,29.89,8,2,9,0.15
2015-1-2,39.9,32.9,26.9,30.4,26.2,21.5,92,77,56,30.09,29.96,6,2,10,0.01